CDT,Max TemperatureF,Mean TemperatureF,Min TemperatureF,Max Dew PointF,MeanDew PointF,Min DewpointF,Max Humidity, Mean Humidity, Min Humidity, Max Sea Level PressureIn, Mean Sea Level PressureIn, Min Sea Level PressureIn, Max VisibilityMiles, Mean VisibilityMiles, Min VisibilityMiles, Max Wind SpeedMPH, Mean Wind SpeedMPH, Max Gust SpeedMPH,PrecipitationIn, CloudCover, Events, WindDirDegrees
2013-3-1,39,36,33,30,27,23,87,71,56,30.04,30.01,29.98,10,9,4,10,4,,0.00,8,Snow,279
2013-3-2,35,34,32,30,27,21,87,76,60,30.08,30.03,29.98,10,10,4,13,5,18,0.00,8,Snow,319
2013-3-3,41,34,24,23,18,10,80,59,29,30.12,30.09,30.06,10,10,5,15,7,20,0.00,4,Snow,329
2013-3-4,53,38,24,30,22,16,86,49,24,30.16,30.07,29.94,10,10,10,8,1,,0.00,2,,160
2013-3-5,60,48,35,54,40,27,82,69,47,30.00,29.89,29.66,10,10,3,26,11,40,0.20,8,Rain-Thunderstorm,240
2013-3-6,41,36,28,27,23,18,80,62,52,30.24,30.14,29.99,10,10,3,18,10,29,0.00,5,Snow,325
2013-3-7,53,40,26,30,26,23,86,64,33,30.31,30.26,30.22,10,10,7,13,2,17,0.00,1,,10
2013-3-8,60,45,30,28,22,9,86,52,13,30.34,30.28,30.24,10,10,5,10,2,,0.00,0,,51
2013-3-9,62,48,35,30,26,21,81,40,25,30.28,30.21,30.11,10,10,10,9,1,23,0.00,0,,121
2013-3-10,71,62,53,39,30,25,45,32,21,30.13,30.05,29.96,10,10,10,13,4,30,0.00,1,,158
2013-3-11,62,52,39,52,44,32,94,74,39,29.98,29.89,29.79,10,8,2,13,6,25,0.82,5,Rain,200
2013-3-12,55,44,33,32,30,25,93,63,31,30.15,30.04,29.93,10,10,7,14,5,20,0.03,3,,332
2013-3-13,50,40,30,30,22,14,93,56,27,30.34,30.22,30.13,10,10,10,20,5,32,0.00,1,,321
2013-3-14,53,40,26,34,17,1,76,45,13,30.41,30.32,30.25,10,10,10,10,2,16,0.00,2,Rain,10
2013-3-15,73,52,30,41,34,28,100,59,25,30.25,30.09,29.97,10,8,0,22,4,29,0.00,0,Fog,234
2013-3-16,73,60,46,43,39,34,87,50,23,30.00,29.94,29.88,10,10,10,22,6,26,0.00,0,,232
2013-3-17,68,54,41,50,44,37,93,68,40,30.00,29.94,29.88,10,10,7,13,3,17,0.00,1,,220
2013-3-18,68,59,50,55,52,48,94,78,64,29.91,29.86,29.74,10,9,0,16,6,22,0.00,8,Fog-Thunderstorm,203
2013-3-19,60,46,33,48,30,21,94,55,22,30.12,30.07,29.90,10,10,2,14,4,22,0.04,1,,1
2013-3-20,55,44,33,32,22,10,87,48,18,30.15,30.06,29.95,10,10,10,17,3,26,0.00,3,,293
2013-3-21,44,36,28,27,14,3,75,44,20,30.06,29.99,29.93,10,10,10,14,6,21,0.00,0,,335
2013-3-22,48,42,35,30,23,14,75,49,33,30.05,30.00,29.96,10,10,10,7,1,,0.00,8,,96
2013-3-23,53,48,42,48,42,32,88,80,57,29.98,29.88,29.71,10,9,3,10,4,18,0.04,8,Rain-Thunderstorm,79
2013-3-24,57,48,37,52,43,25,94,77,50,29.77,29.62,29.45,10,9,2,26,7,40,0.10,8,Rain-Thunderstorm,231
2013-3-25,37,35,32,25,21,19,69,58,52,30.10,29.94,29.77,10,10,10,22,13,29,0.04,8,Snow,278
2013-3-26,37,34,32,27,24,21,80,65,52,30.32,30.21,30.09,10,10,5,15,4,20,0.03,8,Snow,307
2013-3-27,51,38,24,30,24,21,87,61,30,30.37,30.32,30.26,10,10,10,15,2,21,0.03,1,,322
2013-3-28,60,45,30,32,26,19,93,59,22,30.36,30.31,30.25,10,10,10,14,1,18,0.00,0,,337
2013-3-29,66,49,32,37,31,27,93,57,26,30.31,30.25,30.16,10,10,10,12,2,16,0.00,5,Rain,36
2013-3-30,68,55,42,54,43,34,94,71,37,30.18,30.11,29.99,10,8,2,20,3,23,0.05,6,Rain,96
2013-3-31,64,58,53,55,53,52,100,86,64,29.98,29.93,29.86,10,7,0,17,3,24,0.22,8,Fog-Rain,228